Powrót do katalogu

FENGYUN 1C DEB

LostSSO
NORAD 38802·DEBRIS·🇨🇳 China

Wystrzelony May 10, 1999 z Taiyuan Satellite Launch Center

Loading…

Następne Przeloty (najbliższe 24 godziny)

TLE

NieaktualneSource: Space-Track

Epoka: Apr 16, 2017, 09:31 UTC

1 38802U 99025EUS 17106.39671985  .00000208  00000-0  11022-3 0  9998
2 38802  98.5701 167.6672 0046104  32.0447 328.4115 14.13138297412980

Śledź FENGYUN 1C DEB w czasie rzeczywistym z AllMySat

Download on the App Store